Chillicothe, MO

12:32 AM CDT on April 28, 2017 (GMT -0500)
Chillicothe

Weather History for KCDJ - March, 2013

Change the Weather History Date:

Sunday, March 10, 2013

  Actual Average (KIRK) Record (KIRK)
Temperature  
Mean Temperature 40 °F -  
Max Temperature 48 °F 48 °F 75 °F (1955)
Min Temperature 32 °F 28 °F -1 °F (1934)
Degree Days  
Heating Degree Days 25    
Moisture  
Dew Point 39 °F    
Average Humidity 91    
Maximum Humidity 100    
Minimum Humidity 78    
Precipitation  
Precipitation 0.25 in - - ()
Sea Level Pressure  
Sea Level Pressure 29.71 in    
Wind  
Wind Speed 6 mph (West)    
Max Wind Speed 16 mph    
Max Gust Speed 25 mph    
Averages and records for this station are not official NWS values.
T = Trace of Precipitation, MM = Missing Value Source: NWS Daily Summary

Daily Weather History Graph

Daily Weather History Graph

Search for Another Location

Airport or City:

Trip Planner

Search our weather history database for the weather conditions in past years. The results will help you decide how hot, cold, wet, or windy it might be!

Date:

Astronomy

Mar. 10, 2013 Rise Set
Actual Time 7:33 AM CDT 7:16 PM CDT
Civil Twilight 7:06 AM CDT 7:43 PM CDT
Nautical Twilight 6:35 AM CDT 8:14 PM CDT
Astronomical Twilight 6:03 AM CDT 8:46 PM CDT
Moon 6:33 AM CDT (3/10) 6:24 PM CDT (3/10)
Length of Visible Light 12h 36m
Length of Day
11h 43m
Waning Crescent, 2% of the Moon is Illuminated
Mar 10
Waning Crescent
Mar 11
New
Mar 19
First Quarter
Mar 27
Full
Apr 2
Last Quarter

Hourly Weather History & Observations

Time (CDT) Temp. Windchill Dew Point Humidity Pressure Visibility Wind Dir Wind Speed Gust Speed Precip Events Conditions
12:52 AM 48.9 °F - - N/A% 29.66 in - NE 3.5 mph - N/A   Unknown
1:52 AM 48.0 °F - - N/A% 29.64 in - Variable 4.6 mph - N/A   Unknown
3:52 AM 48.0 °F - 48.0 °F 100% 29.64 in - South 5.8 mph - N/A   Unknown
4:52 AM 48.0 °F - 48.0 °F 100% 29.63 in - ESE 4.6 mph - N/A   Unknown
5:52 AM 45.0 °F - 45.0 °F 100% 29.65 in - Calm Calm - N/A   Unknown
6:52 AM 44.1 °F - 44.1 °F 100% 29.67 in - Calm Calm - N/A   Unknown
7:52 AM 43.0 °F 41.3 °F 43.0 °F 100% 29.68 in - SSE 3.5 mph - N/A   Unknown
8:52 AM 48.9 °F - 48.0 °F 97% 29.69 in - South 5.8 mph - 0.01 in   Unknown
9:52 AM 48.0 °F - 46.0 °F 93% 29.70 in - South 5.8 mph - 0.02 in   Unknown
10:52 AM 48.9 °F - 46.0 °F 90% 29.67 in - SE 5.8 mph - 0.04 in   Unknown
11:52 AM 48.0 °F - 46.0 °F 93% 29.70 in - SW 3.5 mph - 0.01 in   Unknown
12:52 PM 48.9 °F - 46.0 °F 90% 29.66 in - South 4.6 mph - 0.02 in   Unknown
1:52 PM 46.0 °F 43.9 °F 45.0 °F 96% 29.66 in - Variable 4.6 mph - 0.01 in   Unknown
2:52 PM 42.1 °F 38.4 °F 39.9 °F 92% 29.65 in - NNW 5.8 mph - 0.08 in   Unknown
3:52 PM 41.0 °F 36.4 °F 37.9 °F 89% 29.67 in - NNW 6.9 mph - 0.05 in   Unknown
4:52 PM 39.9 °F 34.5 °F 37.0 °F 89% 29.68 in - NW 8.1 mph - 0.01 in   Unknown
5:52 PM 37.9 °F 28.9 °F 35.1 °F 89% 29.71 in - WNW 16.1 mph 25.3 mph N/A   Unknown
6:52 PM 37.0 °F 29.8 °F 33.1 °F 86% 29.74 in - NW 10.4 mph - N/A   Unknown
7:52 PM 35.1 °F 26.4 °F 32.0 °F 89% 29.77 in - WNW 12.7 mph 18.4 mph N/A   Unknown
8:52 PM 34.0 °F 25.5 °F 28.9 °F 82% 29.80 in - WNW 11.5 mph 17.3 mph N/A   Unknown
9:52 PM 34.0 °F 25.0 °F 28.0 °F 79% 29.81 in - WNW 12.7 mph 21.9 mph N/A   Unknown
10:52 PM 33.1 °F 25.5 °F 27.0 °F 78% 29.83 in - WNW 9.2 mph 19.6 mph N/A   Unknown
11:52 PM 32.0 °F 23.6 °F 27.0 °F 82% 29.83 in - WNW 10.4 mph 21.9 mph N/A   Unknown
12:52 AM 32.0 °F 24.8 °F 26.1 °F 79% 29.84 in - WNW 8.1 mph - N/A   Unknown